Miscellaneous Local Product
Issued by NWS North Platte, NE

Home | Current Version | Previous Version | Text Only | Print | Product List | Glossary On
Versions: 1 2 3 4 5 6 7 8 9 10 11 12 13 14 15 16 17 18 19 20 21 22 23 24 25 26 27 28 29 30 31 32 33 34 35 36 37 38 39 40 41 42 43 44 45 46 47 48 49 50
345
AXUS43 KLBF 282310
MISLBF


WESTERN AND NORTH CENTRAL NEBRASKA HOURLY WEATHER ROUNDUP
NATIONAL WEATHER SERVICE NORTH PLATTE NE
600 PM CDT TUE MAR 28 2017

NOTE: "FAIR" INDICATES FEW OR NO CLOUDS BELOW 12,000 FEET WITH NO
SIGNIFICANT WEATHER AND/OR OBSTRUCTIONS TO VISIBILITY.

NOTE: STATIONS NOT REPORTING VARIABLES SUCH AS SKY/WEATHER OR
PRESSURE ARE PROVIDED BY RAWS AND APRS NETWORKS AND ARE NOT UNDER
NATIONAL WEATHER SERVICE QUALITY CONTROL.

...OBSERVATIONS IN AND NEAR THE EASTERN PANHANDLE OF NEBRASKA...

CITY           SKY/WX    TMP DP  RH WIND       PRES   REMARKS
PINE RIDGE     LGT RAIN  44  42  93 E9        30.06R
CHADRON        LGT RAIN  46  42  86 E9        30.05R
ALLIANCE       LGT RAIN  42  40  92 E14       30.02R FOG
SIDNEY         LGT RAIN  42  40  92 E20G28    29.95R FOG
CRESCENT LAKE    N/A     41  41  99 E12G23      N/A
$$

...OBSERVATIONS IN NORTHERN NEBRASKA AND FAR SOUTHERN SOUTH DAKOTA...

CITY           SKY/WX    TMP DP  RH WIND       PRES   REMARKS
WINNER         LGT RAIN  50  46  86 SW5       30.09R
VALENTINE      LGT RAIN  46  42  86 E12       30.08R FOG
THEDFORD       LGT RAIN  46  42  87 E9        30.07R
AINSWORTH      CLOUDY    48  43  84 NE12      30.07R
O`NEILL        CLOUDY    54  40  58 NE9       30.07R
ORD            CLOUDY    50  39  66 E9        30.06R
BROKEN BOW     CLOUDY    48  39  71 E9        30.06R
VALENTINE NWR    N/A     46  41  83 E6          N/A
HALSEY           N/A     46  41  84 E6          N/A
BUTTE            N/A     52  38  60 E9          N/A
CHAMBERS         N/A     55  38  52 E7          N/A
EWING            N/A     55  42  61 E8          N/A
$$

...OBSERVATIONS IN SOUTHWEST NEBRASKA AND FAR NORTHEAST COLORADO...

CITY           SKY/WX    TMP DP  RH WIND       PRES   REMARKS
WRAY           CLOUDY    43  43 100 SE21      29.92R
HOLYOKE        CLOUDY    45  41  87 E20G25    29.95S
IMPERIAL       LGT RAIN  43  41  93 E15       29.99S
OGALLALA       LGT RAIN  46  44  93 E9        30.01S
NORTH PLATTE   LGT RAIN  47  44  90 E9        30.04R FOG
MCCOOK         LGT RAIN  47  46  97 CALM      30.00S FOG
LEXINGTON      LGT RAIN  48  41  74 E10       30.04S
STAPLETON        N/A     44  43  95 E3          N/A
GOTHENBURG       N/A     47  42  82 E9          N/A
CALLAWAY         N/A     47  43  86 E7          N/A
$$

...OBSERVATIONS IN CENTRAL LINCOLN COUNTY AREA...

CITY           SKY/WX    TMP DP  RH WIND       PRES   REMARKS
N.P. AIRPORT   LGT RAIN  47  44  90 E9        30.04R FOG
N.P. DOWNTOWN    N/A     45  43  94 E5          N/A
N.P. SOUTHEAST   N/A     45  43  93 E3          N/A
N.P. HILLCREST   N/A     45  44  95 E10         N/A
$$

...SOME OBSERVATIONS FROM AROUND THE REGION...

CITY           SKY/WX    TMP DP  RH WIND       PRES   REMARKS
DENVER         LGT RAIN  43  41  93 N16       29.88R FOG
LIMON          CLOUDY    42  42 100 SE17      29.87R
ASPEN          CLOUDY    38  34  85 NW7G17    29.88R WCI  33
LARAMIE        LGT RAIN  36  35  96 NE16G26   29.97R WCI  26
CASPER         CLOUDY    43  34  70 NE16      30.06R
CHEYENNE       LGT RAIN  39  37  92 N22G33    29.93R WCI  29
SCOTTSBLUFF    LGT RAIN  44  41  89 E17       30.01R FOG
GRAND ISLAND   CLOUDY    47  41  80 E12       30.08R
OMAHA          CLOUDY    51  41  68 E8        30.08R
SIOUX FALLS    CLOUDY    60  38  43 E14       30.08S
PIERRE         CLOUDY    53  42  66 W9        30.08R
RAPID CITY     CLOUDY    45  42  89 VRB3      30.06R
BISMARCK       MOSUNNY   61  36  39 SE10      30.08S
KANSAS CITY    CLOUDY    53  50  89 E10       30.02R
HILL CITY      RAIN      47  46  97 E9        30.00R FOG
WICHITA        CLOUDY    54  49  83 NE20      29.87F
DODGE CITY     HVY RAIN  46  45  96 E14       29.91R FOG
OKLAHOMA CITY  LGT RAIN  67  59  75 E14       29.74F
DALLAS         PTSUNNY   81  66  60 SE18G26   29.66F
AMARILLO       CLOUDY    53  50  89 NE16      29.71F
$$




USA.gov is the U.S. government's official web portal to all federal, state and local government web resources and services.